CZ-2C DEB

Satellite information

Favourite Embed

Satellite Type and Status

DEBRISIN ORBIT

Key statistics

Satellite CZ-2C DEB at a glance.

Uptime

4042

Days in orbit

Revolutions

≈ 14.3

Per day

Orbit

SSO

Sun Synchronous Orbit

Inclination

98.4

Latest

Satellite identification and parameters

Extended collection of information and parameters for CZ-2C DEB.

Object identification

Identified? True

Debris? True

Object name: CZ-2C DEB

International designator: 2014-059F

Object number (NORAD): 40266

Object ID (CCSDS): 40266

Country: PEOPLES REPUBLIC OF CHINA (PRC)

Current information (Y/N): Y

RCS size: SMALL

Orbital parameters

Period: 100.536 minutes

Inclination: 98.3568 deg

SMA: 7162.13 km

Apoapsis: 899.766 km

Periapsis: 668.223 km

RAAN: 206.0228 deg

Eccentricy: 0.01616444

Argument of periapsis: 211.761 deg

Mean anomaly: 147.3746 deg

Mean motion: 14.3231819 rev/day

Mean motion (dot): 0.00003522 rev/day2

B* drag term: 0.0011432032 1/REarth

Two-line elements (TLE)

Creation date: Oct. 21, 2025, 3:26 a.m.

Reference frame: TEME

Reference center: EARTH

Epoch: Oct. 20, 2025, 9:38 p.m. UTC

TLE line 0: 0 CZ-2C DEB

TLE line 1: 1 40266U 14059F 25293.90140615 .00003522 00000-0 11432-2 0 9999

TLE line 2: 2 40266 98.3568 206.0228 0161644 211.7610 147.3746 14.32318190574403

Live tracking on map

Real-time ground track for satellite CZ-2C DEB.

In-orbit conjunctions

A list of the most updated potential collisions computed for object CZ-2C DEB.

Target Orbit TCA Probability of collision Miss distance Type
COSMOS 1275 DEB LEO 2025-01-29 18:19:40 0.0009430799 37.0 (m) DEBRIS
SL-8 R/B LEO 2024-12-15 21:34:52 0.0001866271 599.0 (m) ROCKET BODY
METEOR M2-3 DEB SSO 2024-09-05 23:08:56 0.0004966353 683.0 (m) DEBRIS

Associated space launch

CZ-2C DEB was lifted into orbit during the mission ‘Long March 2C | Shijian 11-07’, on board a Long March 2 space rocket.

The launch took place on Sept. 28, 2014, 5:13 a.m. from Launch Area 4 (SLS-2 / 603).

For more information about the launch, click the button.

Launch to space Long March 2C | Shijian 11-07
Long March 2C | Shijian 11-07

Agency: N/A

Status: Launch Successful

Launch date: Sept. 28, 2014, 5:13 a.m. UTC

Rocket: Long March 2

Launch pad: Launch Area 4 (SLS-2 / 603)

Location: Jiuquan Satellite Launch Center, People's Republic of China

...

Latest news about this satellite

There are no fresh news available about this satellite. Check back as we update our databases every day.


Newsletter sign-up

Weekly statistics, charts and insights to help you stay on top of the space industry.